I0ABU-3 Weather Reports


time (UTC)temp
C
wind
direction
speed
KPH
gust
KPH
rain 1hr
cm
rain 24hr
cm
rain mn
cm
humidity
%
barometer
mb
20260504034521 12 24 1.6 3.2 0.00 0.00 0.00 82 1017.3
20260504033103 12 24 3.2 6.4 0.00 0.00 0.00 79 1017.2
20260504031502 11 24 1.6 6.4 0.00 0.00 0.00 79 1017.2
20260504030039 12 24 1.6 6.4 0.00 0.00 0.00 76 1017.3
20260504024538 12 24 4.8 8.0 0.00 0.00 0.00 75 1017.1
20260504023105 12 24 4.8 8.0 0.00 0.00 0.00 76 1017.2
20260504021521 12 27 6.4 9.7 0.00 0.00 0.00 80 1017.2
20260504020043 12 21 3.2 8.0 0.00 0.00 0.00 84 1017.3
20260504014513 12 21 3.2 4.8 0.00 0.00 0.00 85 1017.2
20260504013027 12 21 4.8 9.7 0.00 0.00 0.00 87 1017.2
20260504011555 11 21 6.4 8.0 0.00 0.00 0.00 87 1017.2
20260504010015 11 19 4.8 8.0 0.00 0.00 0.00 86 1017.1
20260504004546 11 17 6.4 9.7 0.00 0.00 0.00 84 1017.1
20260504003045 11 18 4.8 8.0 0.00 0.00 0.00 84 1017.1
20260504001506 11 35 6.4 12.9 0.00 0.00 0.00 83 1017.2
20260504000029 11 32 4.8 9.7 0.00 0.00 0.00 85 1017.3
20260503234554 11 22 4.8 8.0 0.00 0.00 0.00 85 1017.5
20260503233101 11 26 4.8 9.7 0.00 0.00 0.00 85 1017.5
20260503231523 11 13 6.4 9.7 0.00 0.00 0.00 84 1017.7
20260503230044 12 24 4.8 8.0 0.00 0.00 0.00 84 1017.8
20260503224606 12 26 3.2 8.0 0.00 0.00 0.00 84 1017.9
20260503223024 12 31 4.8 9.7 0.00 0.00 0.00 84 1017.9
20260503221552 12 17 3.2 8.0 0.00 0.00 0.00 84 1017.9
20260503220007 12 331 3.2 6.4 0.00 0.00 0.00 84 1017.9
20260503214533 12 26 1.6 6.4 0.00 0.00 0.00 84 1017.9
20260503213056 13 36 4.8 9.7 0.00 0.00 0.00 83 1017.9
20260503211550 13 360 0.0 12.9 0.00 0.00 0.00 85 1017.9
20260503210007 12 16 0.0 6.4 0.00 0.00 0.00 85 1018.0
20260503204546 12 16 3.2 6.4 0.00 0.00 0.00 84 1017.8
20260503203040 13 19 4.8 6.4 0.00 0.00 0.00 84 1017.7
20260503201552 13 19 1.6 4.8 0.00 0.00 0.00 83 1017.7
20260503200101 13 29 3.2 6.4 0.00 0.00 0.00 82 1017.7
20260503194523 13 34 0.0 1.6 0.00 0.00 0.00 80 1017.5
20260503193051 14 34 0.0 6.4 0.00 0.00 0.00 79 1017.5
20260503191505 14 331 0.0 4.8 0.00 0.00 0.00 79 1017.2
20260503190029 14 198 0.0 14.5 0.00 0.00 0.00 78 1017.3
20260503184559 15 259 3.2 17.7 0.00 0.00 0.00 77 1017.3
20260503183115 15 184 8.0 12.9 0.00 0.00 0.00 74 1017.2
20260503181522 15 250 3.2 16.1 0.00 0.00 0.00 72 1017.1
20260503180048 16 238 6.4 16.1 0.00 0.00 0.00 69 1017.0
20260503174558 17 227 4.8 11.3 0.00 0.00 0.00 64 1016.9
20260503173121 17 228 6.4 12.9 0.00 0.00 0.00 64 1016.6
20260503171525 17 166 6.4 16.1 0.00 0.00 0.00 63 1016.3
20260503120116 20 300 14.5 25.7 0.00 0.00 0.00 47 1018.0
20260503090104 17 257 11.3 19.3 0.00 0.00 0.00 55 1019.0
20260503081556 15 177 8.0 14.5 0.00 0.00 0.00 61 1019.1
20260503071510 15 217 3.2 9.7 0.00 0.00 0.00 60 1019.2
20260503054509 12 33 4.8 8.0 0.00 0.00 0.00 65 1019.0
20260503053036 12 32 3.2 8.0 0.00 0.00 0.00 64 1019.0
20260503051559 12 65 1.6 4.8 0.00 0.00 0.00 63 1019.0
20260503050015 11 360 3.2 9.7 0.00 0.00 0.00 61 1019.1
20260503044542 12 38 6.4 12.9 0.00 0.00 0.00 59 1018.8
20260503043104 12 38 8.0 16.1 0.00 0.00 0.00 60 1018.9
20260503041526 11 318 0.0 4.8 0.00 0.00 0.00 65 1018.9
20260503040044 11 34 1.6 4.8 0.00 0.00 0.00 68 1018.9